Location: Caltech
(34.1382°N, 118.1253°W)
Time: 22:06:24
(UTC-07:00)

Cosmos 44 Rocket - Visible Passes

Search period start: 29 June 2016 00:00
Search period end: 09 July 2016 00:00
Orbit: 637 x 754 km, 65.1° (Epoch: 29 June)

Date Brightness Start Highest point End Pass type
(mag) Time Alt. Az. Time Alt. Az. Time Alt. Az.
29 Jun 4.9 00:39:54 31° NW 00:39:54 31° NW 00:44:25 10° N visible
29 Jun 4.0 23:41:13 53° NNE 23:41:13 53° NNE 23:45:16 10° NNE visible
30 Jun 6.2 01:21:08 10° WNW 01:22:27 11° NW 01:23:46 10° NNW visible
30 Jun 4.6 22:42:24 29° ENE 22:42:24 29° ENE 22:45:25 10° NE visible
01 Jul 5.3 00:21:04 22° WNW 00:22:14 24° NW 00:26:29 10° N visible
01 Jul 5.4 21:43:24 12° E 21:43:24 12° E 21:44:12 10° ENE visible
01 Jul 3.8 23:22:02 57° WNW 23:22:23 58° WNW 23:27:33 10° NNE visible
02 Jul 3.5 22:22:42 53° ESE 22:22:50 54° ESE 22:27:55 10° NE visible
03 Jul 5.8 00:01:19 11° W 00:04:43 19° NW 00:08:26 10° N visible
03 Jul 4.7 21:22:55 20° ESE 21:23:35 20° ESE 21:27:18 10° ENE visible
03 Jul 4.4 23:01:29 20° WSW 23:04:46 44° WNW 23:09:46 10° NNE visible
04 Jul 3.3 22:00:37 13° SSW 22:05:08 73° ESE 22:10:21 10° NNE visible
04 Jul 6.2 23:44:15 10° W 23:47:14 15° NW 23:50:14 10° NNW visible
05 Jul 4.3 21:01:33 10° SSE 21:05:48 27° ESE 21:10:07 10° NE visible
05 Jul 5.0 22:42:31 10° WSW 22:47:11 34° NW 22:51:55 10° N visible
06 Jul 3.4 21:42:19 10° SSW 21:47:27 85° WNW 21:52:42 10° NNE visible
06 Jul 6.5 23:27:52 10° WNW 23:29:47 12° NW 23:31:41 10° NNW visible
07 Jul 4.0 20:43:23 10° S 20:48:02 36° ESE 20:52:46 10° NE visible
07 Jul 5.6 22:25:18 10° WSW 22:29:37 26° NW 22:34:01 10° N visible
08 Jul 3.9 21:24:43 10° SW 21:29:48 64° WNW 21:35:00 10° NNE visible
